Pope Field Airport, NC

2:35 PM EDT on June 28, 2017 (GMT -0400)
Pope Field Airport

Weather History for KPOB - October, 2012

Change the Weather History Date:

Monday, October 22, 2012

  Actual Average Record
Temperature  
Mean Temperature 58 °F -  
Max Temperature 75 °F 70 °F 84 °F (2001)
Min Temperature 41 °F 46 °F 36 °F (1987)
Degree Days  
Heating Degree Days 8    
Growing Degree Days 8 (Base 50)    
Moisture  
Dew Point 45 °F    
Average Humidity 72    
Maximum Humidity 97    
Minimum Humidity 34    
Precipitation  
Precipitation 0.00 in - - ()
Sea Level Pressure  
Sea Level Pressure 30.19 in    
Wind  
Wind Speed 1 mph (NNW)    
Max Wind Speed 6 mph    
Max Gust Speed -    
Visibility 10 miles    
Events      
Averages and records for this station are not official NWS values.
T = Trace of Precipitation, MM = Missing Value Source: NWS Daily Summary

Daily Weather History Graph

Daily Weather History Graph

Search for Another Location

Airport or City:

Trip Planner

Search our weather history database for the weather conditions in past years. The results will help you decide how hot, cold, wet, or windy it might be!

Date:

Astronomy

Oct. 22, 2012 Rise Set
Actual Time 7:28 AM EDT 6:31 PM EDT
Civil Twilight 7:02 AM EDT 6:57 PM EDT
Nautical Twilight 6:33 AM EDT 7:27 PM EDT
Astronomical Twilight 6:03 AM EDT 7:56 PM EDT
Moon 2:24 PM EDT (10/22) 12:28 AM EDT (10/22)
Length of Visible Light 11h 54m
Length of Day
11h 03m
First Quarter, 56% of the Moon is Illuminated
Oct 22
First Quarter
Oct 29
Full
Nov 6
Last Quarter
Nov 13
New
Nov 20
First Quarter

Hourly Weather History & Observations

Time (EDT) Temp. Windchill Dew Point Humidity Pressure Visibility Wind Dir Wind Speed Gust Speed Precip Events Conditions
12:55 AM 45.3 °F - 43.0 °F 92% 30.17 in 10.0 mi Calm Calm - N/A   Clear
1:55 AM 44.1 °F 42.5 °F 42.3 °F 93% 30.17 in 10.0 mi West 3.5 mph - N/A   Clear
2:55 AM 44.8 °F - 42.4 °F 91% 30.17 in 10.0 mi Calm Calm - N/A   Clear
3:55 AM 42.8 °F 41.1 °F 41.0 °F 93% 30.17 in 10.0 mi West 3.5 mph - N/A   Clear
4:55 AM 42.3 °F - 40.5 °F 93% 30.17 in 10.0 mi Calm Calm - N/A   Clear
5:55 AM 41.7 °F 39.8 °F 39.9 °F 93% 30.19 in 10.0 mi West 3.5 mph - N/A   Clear
6:55 AM 41.7 °F - 39.9 °F 93% 30.21 in 10.0 mi Calm Calm - N/A   Clear
7:55 AM 41.0 °F - 39.7 °F 95% 30.24 in 10.0 mi Calm Calm - N/A   Clear
8:55 AM 46.6 °F - 43.0 °F 87% 30.25 in 10.0 mi Calm Calm - N/A   Clear
9:55 AM 54.3 °F - 46.6 °F 75% 30.26 in 10.0 mi Calm Calm - N/A   Clear
10:55 AM 64.4 °F - 47.3 °F 54% 30.25 in 10.0 mi Calm Calm - N/A   Clear
11:55 AM 68.9 °F - 46.2 °F 44% 30.23 in 10.0 mi Calm Calm - N/A   Clear
12:55 PM 71.2 °F - 46.6 °F 41% 30.21 in 10.0 mi Calm Calm - N/A   Clear
1:55 PM 72.9 °F - 45.7 °F 38% 30.19 in 10.0 mi Calm Calm - N/A   Clear
2:55 PM 73.8 °F - 44.1 °F 34% 30.16 in 10.0 mi NNE 5.8 mph - N/A   Clear
3:55 PM 74.1 °F - 43.9 °F 34% 30.15 in 10.0 mi NNE 3.5 mph - N/A   Clear
4:55 PM 74.3 °F - 44.1 °F 34% 30.15 in 10.0 mi NE 4.6 mph - N/A   Clear
5:55 PM 72.3 °F - 46.0 °F 39% 30.15 in 10.0 mi Calm Calm - N/A   Clear
6:55 PM 63.1 °F - 51.1 °F 65% 30.16 in 10.0 mi Calm Calm - N/A   Clear
7:55 PM 57.7 °F - 52.5 °F 83% 30.18 in 10.0 mi Calm Calm - N/A   Clear
8:55 PM 54.1 °F - 51.6 °F 91% 30.18 in 10.0 mi Calm Calm - N/A   Clear
9:55 PM 52.5 °F - 49.8 °F 91% 30.19 in 10.0 mi Calm Calm - N/A   Clear
10:55 PM 49.8 °F - 48.9 °F 97% 30.20 in 10.0 mi Calm Calm - N/A   Clear
11:55 PM 49.8 °F - 47.1 °F 90% 30.19 in 10.0 mi Calm Calm - N/A   Clear